Tracking 19854 objects as of 22-Sep-2019
HD Live streaming from Space Station
objects crossing your sky now

ARIANE 5 R/B

Track ARIANE 5 R/B now!


NORAD ID: 27946
Int'l Code: 2003-043B
Perigee: 613.3 km
Apogee: 36,066.8 km
Inclination: 7.2 °
Period: 644.3 minutes
Semi major axis: 24711 km
RCS: 26.85 m2 (large)
Launch date: September 27, 2003
Source: France (FR)
Launch site: FRENCH GUIANA (FRGUI)

Note: This is a ROCKET BODY
aabbcc
Your satellite tracking list
Your tracking list is empty




NASA's NSSDC Master Catalog

Two Line Element Set (TLE):
1 27946U 03043B   19264.12156127 -.00000021  00000-0 -90182-3 0  9993
2 27946   7.1995 161.7110 7173609 110.7576 334.9863  2.23494403130548
Source of the keplerian elements: AFSPC